Vertical_Velocity
-1 -1 -2 3 2 -3 -2 -2 -2 1 -2 -2 -3 -3 -1 -0 -1 -1 -1 0 0 -3 -2 -2 -1 2 1 -3 1 0 -2 0
5 -0 -4 4 2 -4 2 -2 -0 -2 0 -4 -2 -2 0 0 -1 -2 -1 -1 -1 -1 -2 -2 -1 -1 1 2 -0 -1 1 -1
4 -1 -2 4 -1 -5 2 -1 -0 0 -2 -3 -3 -2 -2 0 -1 -1 -1 -1 -1 -1 -3 -2 -1 -3 3 -3 1 -1 -1 0
-3 -1 2 2 -3 -0 1 -0 1 1 -4 -2 1 -3 0 -1 -1 -1 -1 -2 -1 -1 -3 -2 -4 -3 -1 -1 -1 -0 -2 0
-2 2 2 1 -6 2 1 2 1 -1 -3 -2 0 -3 -1 -1 -1 -2 -0 -2 -1 -0 0 -0 -4 -0 -2 -0 -0 -1 -1 -1
2 0 1 -5 1 0 -0 2 -1 -2 -1 -1 -1 -1 -2 -2 -2 -4 -1 -2 -0 -0 -1 -4 1 -2 -1 6 0 -2 -1 -2
1 -3 -0 -1 0 0 -1 2 -0 -3 2 -4 -1 -0 -1 -3 -2 -2 -2 -0 -0 1 -1 -5 -1 -0 -4 -5 0 -1 -2 -1
-0 -1 4 -0 -2 -1 -1 2 -2 -3 -1 -0 -0 -1 -1 -2 -3 -2 -3 -0 -0 3 1 -2 -6 1 2 -2 -2 -0 -1 -2
1 -2 3 3 0 1 0 3 -3 1 -3 1 -3 -2 -1 -2 -1 -0 0 -2 -3 -2 1 -1 -1 -5 -3 3 -0 -3 1 -0
3 -1 2 5 -1 4 1 3 -4 -1 -1 -1 -2 0 -3 -2 -2 -3 -1 -2 -2 -2 -0 2 2 -3 -3 -4 3 -0 -3 -1
1 0 3 5 1 2 0 -1 -1 -0 1 -3 0 0 -1 -2 -1 -2 -2 -2 -3 -2 -2 0 1 0 -1 -2 -5 -4 1 0
4 4 -3 2 5 4 -0 1 -2 1 -3 2 -3 -3 -2 -1 -1 -2 -2 -1 -3 -2 -2 -1 0 0 -0 -0 -1 -1 -4 -6
2 5 11 -1 1 1 -4 3 -10 4 -2 -1 -3 -1 0 -2 -3 -1 -1 -0 -2 -3 -2 -2 -1 2 -1 0 -2 0 -1 -1
7 5 7 -3 7 9 4 1 -4 0 3 -0 2 -0 1 -1 -3 -3 -3 0 -2 -2 -2 -3 -2 1 -1 1 -2 -1 -1 -2
-6 3 4 5 3 13 6 -4 -7 -11 1 -4 -0 5 -7 -3 -1 -1 -2 -1 -0 -2 -4 -4 -2 -1 1 -2 -1 -3 -0 -0
6 1 -3 1 1 3 11 5 -3 -4 4 4 -2 -2 -1 -0 -3 -1 -3 -1 -0 1 -4 -6 -2 -2 -1 -2 -1 -0 -3 -2
10 9 4 3 0 1 10 5 1 3 -1 0 4 -5 3 -1 -1 -0 -2 -3 -2 2 -3 -4 -1 -3 1 -3 -0 -0 -2 1
-4 3 4 7 3 4 6 9 3 -2 -3 1 2 4 -2 7 -0 -5 7 -2 -1 2 1 -4 -1 -0 -2 -4 1 -1 -1 -2
11 9 7 6 7 2 2 6 7 4 -4 -1 -0 4 -3 9 3 6 4 5 2 3 2 1 -3 0 1 1 -2 -1 -1 -1
6 8 14 5 2 3 -2 -0 3 5 4 -3 3 4 -1 -2 3 0 7 7 1 1 3 3 -3 -6 1 0 2 2 1 0
Height
3181 3183 3186 3186 3187 3189 3192 3193 3195 3197 3198 3199 3200 3201 3203 3205 3205 3205 3206 3207 3208 3208 3208 3208 3208 3209 3210 3209 3210 3209 3209 3208
3181 3182 3186 3185 3186 3188 3191 3194 3195 3196 3197 3199 3201 3202 3204 3205 3205 3206 3207 3208 3209 3208 3209 3209 3210 3210 3211 3211 3211 3211 3210 3209
3179 3181 3184 3185 3185 3187 3190 3193 3194 3195 3197 3199 3201 3202 3204 3205 3206 3206 3207 3208 3209 3209 3210 3209 3210 3210 3212 3212 3212 3212 3212 3211
3177 3181 3183 3183 3185 3188 3189 3191 3193 3194 3196 3199 3201 3202 3204 3205 3206 3207 3208 3209 3209 3209 3210 3211 3210 3211 3213 3213 3213 3213 3212 3212
3175 3179 3180 3182 3185 3187 3188 3190 3191 3192 3195 3199 3200 3202 3204 3205 3206 3207 3208 3209 3210 3210 3211 3213 3212 3213 3214 3214 3214 3213 3213 3213
3174 3177 3179 3181 3184 3186 3187 3189 3190 3192 3194 3198 3200 3202 3203 3204 3205 3207 3208 3209 3211 3211 3211 3212 3214 3214 3214 3216 3215 3214 3214 3214
3172 3174 3178 3179 3182 3184 3186 3188 3188 3190 3193 3196 3199 3201 3202 3203 3205 3207 3208 3210 3211 3212 3211 3212 3214 3215 3215 3215 3215 3214 3214 3214
3169 3172 3176 3178 3180 3182 3185 3186 3186 3188 3191 3195 3198 3200 3202 3203 3205 3206 3208 3210 3211 3212 3212 3212 3213 3215 3216 3216 3216 3215 3215 3215
3166 3169 3173 3175 3178 3181 3183 3186 3185 3187 3190 3194 3196 3198 3200 3202 3205 3207 3208 3209 3210 3211 3212 3212 3213 3214 3215 3216 3216 3215 3215 3215
3163 3166 3170 3170 3174 3178 3180 3183 3184 3186 3189 3192 3195 3196 3198 3200 3203 3205 3206 3208 3209 3211 3212 3213 3213 3214 3214 3215 3216 3215 3215 3215
3160 3163 3166 3167 3169 3174 3177 3179 3182 3185 3188 3191 3194 3195 3197 3199 3201 3203 3205 3206 3208 3210 3211 3211 3213 3213 3214 3214 3214 3214 3215 3215
3156 3160 3162 3165 3167 3171 3175 3177 3180 3183 3186 3188 3192 3194 3197 3198 3199 3201 3203 3205 3206 3208 3209 3210 3211 3212 3213 3213 3213 3213 3213 3213
3152 3155 3157 3159 3165 3168 3171 3175 3176 3181 3185 3188 3190 3193 3195 3196 3197 3198 3200 3203 3204 3206 3207 3208 3209 3210 3211 3212 3212 3212 3212 3212
3149 3152 3153 3155 3162 3166 3169 3173 3175 3181 3184 3187 3189 3191 3193 3195 3196 3197 3198 3199 3201 3203 3204 3205 3206 3208 3209 3209 3210 3211 3211 3211
3144 3148 3151 3152 3157 3162 3165 3168 3171 3177 3180 3183 3185 3189 3191 3191 3193 3195 3195 3196 3199 3200 3201 3202 3204 3205 3206 3207 3207 3208 3208 3209
3139 3145 3145 3148 3152 3157 3161 3163 3166 3171 3178 3180 3181 3183 3186 3186 3189 3191 3192 3194 3195 3197 3198 3199 3200 3201 3203 3203 3204 3206 3206 3206
3136 3138 3140 3140 3145 3151 3156 3159 3164 3168 3173 3175 3176 3178 3180 3180 3184 3187 3188 3190 3191 3193 3194 3195 3197 3198 3199 3199 3201 3202 3202 3203
3129 3131 3135 3137 3141 3145 3151 3155 3159 3161 3165 3170 3172 3174 3174 3174 3177 3182 3185 3185 3188 3189 3190 3191 3193 3194 3195 3195 3197 3198 3199 3198
3122 3126 3129 3132 3137 3140 3145 3150 3154 3156 3159 3163 3166 3168 3171 3169 3171 3174 3177 3180 3183 3185 3186 3188 3189 3190 3192 3192 3192 3193 3194 3194
3110 3115 3123 3127 3131 3135 3139 3144 3147 3150 3152 3155 3159 3163 3166 3166 3165 3167 3171 3173 3176 3178 3180 3183 3184 3185 3186 3187 3188 3189 3189 3190